Skip Page Navigation
NASA JPL Caltech
NASA Logo - Jet Propulsion Laboratory + View the NASA Portal
+ Center for Near-Earth Object Studies
JPL Home Earth Solar System Stars & Galaxies Technology
JPL Solar System Dynamics
BODIES ORBITS EPHEMERIDES TOOLS PHYSICAL DATA DISCOVERY FAQ SITE MAP
IMPORTANT: The SSD Announcement email list is now available. Major changes are coming in the near future, including possible hostname and/or URL changes. To be notified of such changes, subscribe to this email list.

Please visit this page for more details.


JPL Small-Body Database Browser
Search: [ help ]  
201606 (2003 SC196)
Classification: Main-belt Asteroid          SPK-ID: 2201606
Ephemeris | Orbit Diagram | Orbital Elements | Mission Design | Physical Parameters | Discovery Circumstances | Close-Approach Data ]

[ show orbit diagram ]
Orbital Elements at Epoch 2458600.5 (2019-Apr-27.0) TDB
Reference: JPL 17 (heliocentric ecliptic J2000)
 Element Value Uncertainty (1-sigma)   Units 
e .02556684462353239 4.1227e-08  
a 2.67610078608324 2.0026e-08 au
q 2.607681333088537 1.1623e-07 au
i 7.793106235464643 4.6765e-06 deg
node 266.0987857272988 3.8525e-05 deg
peri 26.63956339600454 0.00011355 deg
M 287.2294866915665 0.00010777 deg
tp 2458923.725088372055
(2020-Mar-15.22508837)
0.00047921 TDB
period 1599.013481198769
4.38
1.7949e-05
4.914e-08
d
yr
n .225138814796052 2.5272e-09 deg/d
Q 2.744520239077943 2.0538e-08 au
  Orbit Determination Parameters
   # obs. used (total)      445  
   data-arc span      7094 days (19.42 yr)  
   first obs. used      1999-12-05  
   last obs. used      2019-05-08  
   planetary ephem.      DE431  
   SB-pert. ephem.      SB431-N16  
   condition code      0  
   norm. resid. RMS      .59187  
   source      ORB  
   producer      Otto Matic  
   solution date      2019-May-30 08:14:42  

Additional Information
 Earth MOID = 1.59282 au 
 Jupiter MOID = 2.32309 au 
 T_jup = 3.365 
[ show covariance matrix ]

Ephemeris | Orbit Diagram | Orbital Elements | Mission Design | Physical Parameters | Discovery Circumstances | Close-Approach Data ]

Physical Parameter Table
Parameter Symbol Value Units Sigma Reference Notes
absolute magnitude H 15.5   n/a MPO396541  
diameter diameter 2.710 km 1.095 urn:nasa:pds:neowise_diameters_albedos::2.0[mainbelt] (http://adsabs.harvard.edu/abs/2011ApJ...741...68M)  
geometric albedo albedo 0.182   0.134 urn:nasa:pds:neowise_diameters_albedos::2.0[mainbelt] (http://adsabs.harvard.edu/abs/2011ApJ...741...68M)  

201606 (2003 SC196)          Discovered 2003-Sep-20 by NEAT at Palomar
Reference: 20081212/Numbers.arcLast Updated: 2008-12-12

[ show close-approach data ]
Ephemeris | Orbit Diagram | Orbital Elements | Mission Design | Physical Parameters | Discovery Circumstances | Close-Approach Data ]
ABOUT SSD CREDITS/AWARDS PRIVACY/COPYRIGHT GLOSSARY LINKS
FirstGov 2020-Jan-20 16:21 UT
(server date/time)  
NASA Home Page
Site Manager:   Ryan S. Park
Webmaster  Alan B. Chamberlin